User: anonymous   Login
Location: Knowlton
(51.2333°N, 1.2667°E)
Time: 15:46:24
(UTC+00:00)
Language:

DOVE 4 - Orbit

View from above orbital plane
View from above orbital plane
View from above satellite
View from above satellite

Ground track
Ground track

The orbit data is extracted from the following two-line orbital elements,

1 39430U 13066Q   21332.09137021  .00000525  00000-0  10352-3 0  9995
2 39430  97.8139 245.7535 0149639 319.9558  39.0690 14.59754603426914
Epoch (UTC): 28 November 2021 02:11:34
Eccentricity: 0.0149639
inclination: 97.8139°
perigee height: 588 km
apogee height: 800 km
right ascension of ascending node: 245.7535°
argument of perigee: 319.9558°
revolutions per day: 14.59754603
mean anomaly at epoch: 39.0690°
orbit number at epoch: 42691

The dashed part of the orbit path shows where the satellite is in the earth's shadow,  

DLR